EA5DHO-13 Weather Reports


Display with metric or nautical units.
time (UTC)temp
F
wind
direction
speed
MPH
gust
MPH
rain 1hr
in
rain 24hr
in
rain mn
in
humidity
%
barometer
mb
20260509164502 65 94 6.0 9.0 0.00 0.69 0.69 77 1013.4
20260509163500 65 64 6.0 8.0 0.00 0.69 0.69 76 1013.4
20260509162457 65 131 6.0 9.0 0.00 0.69 0.69 78 1013.6
20260509161452 65 77 6.0 11.0 0.00 0.69 0.69 79 1013.5
20260509160449 66 65 5.0 8.0 0.00 0.69 0.69 77 1013.6
20260509155446 66 85 3.0 6.0 0.00 0.69 0.69 77 1013.5
20260509154442 66 104 5.0 8.0 0.00 0.69 0.69 77 1013.7
20260509153439 66 46 2.0 2.0 0.00 0.69 0.69 78 1013.6
20260509152436 65 41 3.0 4.0 0.00 0.69 0.69 78 1013.8
20260509151434 65 27 3.0 7.0 0.00 0.69 0.69 80 1013.7
20260509150429 64 37 4.0 7.0 0.00 0.69 0.69 81 1013.6
20260509145426 64 34 2.0 7.0 0.00 0.69 0.69 83 1013.8
20260509144423 64 128 2.0 6.0 0.00 0.69 0.69 87 1013.7
20260509143420 62 5 4.0 7.0 0.00 0.69 0.69 91 1013.8
20260509142418 62 81 1.0 4.0 0.00 0.69 0.69 94 1013.8
20260509141513 61 49 3.0 6.0 0.00 0.69 0.69 95 1014.0
20260509140531 62 66 1.0 2.0 0.00 0.69 0.69 95 1013.9
20260509135508 61 0.0 0.0 0.00 0.69 0.69 95 1013.9
20260509134525 61 0.0 2.0 0.00 0.69 0.69 96 1013.9
20260509133501 60 184 1.0 2.0 0.01 0.69 0.69 96 1014.0
20260509132518 60 68 1.0 2.0 0.01 0.69 0.69 96 1013.6
20260509131456 60 76 3.0 7.0 0.02 0.69 0.69 96 1013.1
20260509130452 60 45 3.0 7.0 0.05 0.69 0.69 96 1013.5
20260509125448 60 33 1.0 2.0 0.07 0.69 0.69 96 1014.1
20260509124444 60 45 1.0 4.0 0.08 0.69 0.69 96 1014.5
20260509123442 60 253 3.0 6.0 0.08 0.67 0.67 96 1014.9
20260509122439 59 270 4.0 7.0 0.11 0.67 0.67 96 1015.0
20260509121435 59 255 3.0 4.0 0.12 0.66 0.66 96 1015.2
20260509120433 60 270 3.0 4.0 0.11 0.64 0.64 95 1015.3
20260509115430 59 248 2.0 4.0 0.12 0.61 0.61 95 1015.4
20260509114447 59 225 2.0 4.0 0.13 0.60 0.60 95 1015.4
20260509113502 59 270 3.0 6.0 0.14 0.59 0.59 95 1015.4
20260509112419 59 248 4.0 4.0 0.13 0.57 0.57 95 1015.1
20260509111416 60 262 4.0 7.0 0.12 0.54 0.54 95 1015.0
20260509110513 60 262 1.0 4.0 0.12 0.53 0.53 95 1014.7
20260509105509 60 315 2.0 4.0 0.13 0.50 0.50 94 1014.5
20260509104506 60 225 1.0 2.0 0.13 0.47 0.47 94 1014.7
20260509103523 60 248 2.0 4.0 0.13 0.45 0.45 94 1014.8
20260509102500 59 0.0 2.0 0.15 0.44 0.44 94 1014.6
20260509101456 60 0 2.0 4.0 0.18 0.43 0.43 94 1014.1
20260509100515 60 45 2.0 4.0 0.22 0.41 0.41 94 1014.2
20260509095451 60 352 2.0 4.0 0.20 0.37 0.37 93 1013.9
20260509094447 60 45 0.0 2.0 0.20 0.34 0.34 93 1014.2
20260509093445 59 44 2.0 4.0 0.21 0.32 0.32 93 1013.9
20260509092440 60 45 0.0 2.0 0.22 0.28 0.28 92 1013.7
20260509091437 60 23 2.0 4.0 0.22 0.25 0.25 92 1013.9
20260509090435 60 29 2.0 4.0 0.18 0.19 0.19 91 1014.0
20260509084427 60 338 1.0 4.0 0.14 0.14 0.14 89 1014.6
20260509083424 60 0 2.0 4.0 0.11 0.11 0.11 88 1014.6
20260509082421 61 52 2.0 4.0 0.06 0.06 0.06 87 1014.6
20260509081418 61 315 0.0 2.0 0.02 0.02 0.02 85 1014.6
20260509080536 62 348 1.0 2.0 0.01 0.01 0.01 84 1014.3
20260509075511 62 57 1.0 4.0 0.00 0.00 0.00 83 1014.3
20260509074508 62 248 4.0 6.0 0.00 0.00 0.00 83 1014.6
20260509073505 62 15 1.0 2.0 0.00 0.00 0.00 82 1014.4
20260509072502 62 0.0 0.0 0.00 0.00 0.00 83 1014.7
20260509071459 62 261 2.0 2.0 0.00 0.00 0.00 83 1014.8
20260509070455 62 248 2.0 2.0 0.00 0.00 0.00 83 1014.8
20260509065452 62 0.0 0.0 0.00 0.00 0.00 84 1014.3
20260509064450 62 338 0.0 2.0 0.00 0.00 0.00 84 1013.7
20260509063445 62 270 1.0 2.0 0.00 0.00 0.00 85 1013.2
20260509062442 61 319 2.0 4.0 0.00 0.00 0.00 85 1013.1
20260509061439 61 9 2.0 6.0 0.00 0.00 0.00 85 1013.1
20260509060436 61 251 2.0 4.0 0.00 0.00 0.00 85 1013.2
20260509055433 61 345 2.0 4.0 0.00 0.00 0.00 85 1014.2
20260509054430 61 0.0 2.0 0.00 0.00 0.00 86 1014.6
20260509053427 61 0 1.0 2.0 0.00 0.00 0.00 86 1014.2
20260509052423 61 183 1.0 2.0 0.00 0.00 0.00 86 1014.0
20260509051420 61 338 1.0 4.0 0.00 0.00 0.00 86 1013.9
20260509050416 61 346 1.0 4.0 0.00 0.00 0.00 85 1014.1
20260509045513 61 28 2.0 4.0 0.00 0.00 0.00 85 1014.0
20260509044510 61 21 2.0 6.0 0.00 0.00 0.00 85 1013.7
20260509043527 61 23 2.0 4.0 0.00 0.00 0.00 85 1013.9
20260509042504 61 41 2.0 6.0 0.00 0.00 0.00 85 1013.5
20260509041501 61 38 2.0 2.0 0.00 0.00 0.00 85 1014.0
20260509040457 61 38 2.0 4.0 0.00 0.00 0.00 85 1013.9
20260509035454 61 0 1.0 6.0 0.00 0.00 0.00 84 1013.8
20260509034452 62 0 1.0 2.0 0.00 0.00 0.00 83 1013.9
20260509033448 61 0 2.0 4.0 0.00 0.00 0.00 83 1013.9
20260509032446 61 17 1.0 4.0 0.00 0.00 0.00 83 1013.9
20260509031441 61 12 1.0 4.0 0.00 0.00 0.00 82 1014.1
20260509030438 61 6 2.0 4.0 0.00 0.00 0.00 82 1013.9
20260509025435 61 8 1.0 6.0 0.00 0.00 0.00 82 1014.0
20260509024431 61 37 1.0 4.0 0.00 0.00 0.00 82 1014.2
20260509023428 61 64 1.0 4.0 0.00 0.00 0.00 82 1014.1
20260509022425 61 23 2.0 4.0 0.00 0.00 0.00 83 1014.2
20260509021423 61 0.0 2.0 0.00 0.00 0.00 83 1014.3
20260509020419 61 0.0 0.0 0.00 0.00 0.00 83 1014.5
20260509015416 61 38 2.0 4.0 0.00 0.00 0.00 83 1014.4
20260509014513 61 68 2.0 4.0 0.00 0.00 0.00 84 1014.5
20260509013531 61 57 1.0 4.0 0.00 0.00 0.00 84 1014.5
20260509012506 60 23 2.0 4.0 0.00 0.00 0.00 85 1014.7
20260509011503 60 43 1.0 2.0 0.00 0.00 0.00 86 1014.9
20260509010500 60 75 2.0 4.0 0.00 0.00 0.00 86 1014.9
20260509005457 61 0.0 0.0 0.00 0.00 0.00 87 1014.9
20260509004453 61 358 2.0 4.0 0.00 0.00 0.00 87 1015.2
20260509003450 61 23 1.0 2.0 0.00 0.00 0.00 87 1015.3
20260509002447 61 7 1.0 2.0 0.00 0.00 0.00 87 1015.5
20260509001443 61 30 2.0 2.0 0.00 0.00 0.00 87 1015.7
20260509000500 61 248 1.0 2.0 0.00 0.00 0.00 87 1015.7
20260508235438 61 33 1.0 2.0 0.00 0.00 0.00 87 1015.7
20260508234515 61 0.0 0.0 0.00 0.00 0.00 87 1015.8
20260508233432 61 0.0 0.0 0.00 0.00 0.00 87 1015.8
20260508232427 61 15 1.0 2.0 0.00 0.00 0.00 87 1015.7
20260508231444 62 58 2.0 4.0 0.00 0.00 0.00 87 1015.8
20260508230421 62 66 1.0 2.0 0.00 0.00 0.00 86 1015.8
20260508225437 62 105 2.0 4.0 0.00 0.00 0.00 86 1015.9
20260508224534 62 45 1.0 2.0 0.00 0.00 0.00 86 1016.1
20260508223511 63 23 1.0 2.0 0.00 0.00 0.00 85 1016.1
20260508222528 63 23 3.0 4.0 0.00 0.00 0.00 84 1016.2
20260508221504 63 45 1.0 2.0 0.00 0.00 0.00 82 1016.2
20260508220521 64 0.0 2.0 0.00 0.00 0.00 81 1016.3
20260508215458 64 0.0 2.0 0.00 0.00 0.00 81 1016.2
20260508214455 64 68 2.0 4.0 0.00 0.00 0.00 81 1016.2
20260508213512 64 68 1.0 2.0 0.00 0.00 0.00 81 1016.3
20260508212529 64 68 4.0 6.0 0.00 0.00 0.00 82 1016.3
20260508211445 64 81 3.0 4.0 0.00 0.00 0.00 82 1016.3
20260508210442 64 104 3.0 4.0 0.00 0.00 0.00 82 1016.2
20260508205438 64 82 4.0 8.0 0.00 0.00 0.00 82 1016.2
20260508204435 64 75 4.0 7.0 0.00 0.00 0.00 81 1016.2
20260508203432 64 90 4.0 7.0 0.00 0.00 0.00 81 1016.0
20260508202429 64 68 4.0 7.0 0.00 0.00 0.00 81 1016.0
20260508201426 64 68 6.0 9.0 0.00 0.00 0.00 80 1015.9
20260508200422 64 57 4.0 7.0 0.00 0.00 0.00 81 1016.0
20260508195419 64 90 6.0 11.0 0.00 0.00 0.00 81 1015.8
20260508194417 64 68 6.0 11.0 0.00 0.00 0.00 81 1015.8
20260508193554 65 113 3.0 6.0 0.00 0.00 0.00 82 1015.7
20260508192509 65 97 4.0 7.0 0.00 0.00 0.00 81 1015.6
20260508191527 65 90 3.0 8.0 0.00 0.01 0.00 81 1015.4
20260508190503 65 90 4.0 6.0 0.00 0.05 0.00 81 1015.4
20260508185500 64 68 8.0 14.0 0.00 0.06 0.00 80 1015.3
20260508184457 65 45 8.0 13.0 0.00 0.07 0.00 81 1015.1
20260508183454 65 59 6.0 11.0 0.00 0.12 0.00 80 1015.0
20260508182449 65 68 6.0 9.0 0.00 0.12 0.00 80 1014.9
20260508181446 65 53 5.0 9.0 0.00 0.17 0.00 80 1014.9
20260508180443 66 113 4.0 8.0 0.00 0.24 0.00 79 1014.9
20260508175440 66 73 3.0 7.0 0.00 0.33 0.00 78 1015.0
20260508174438 66 55 5.0 9.0 0.00 0.70 0.00 76 1014.9
20260508173434 66 74 6.0 13.0 0.00 0.91 0.00 75 1014.8
20260508172432 67 58 5.0 9.0 0.00 0.91 0.00 74 1014.7
20260508171427 67 90 6.0 11.0 0.00 0.91 0.00 73 1014.6
20260508170444 67 74 8.0 14.0 0.00 0.91 0.00 71 1014.6
20260508165422 66 81 8.0 11.0 0.00 0.91 0.00 71 1014.6